N9XP-9 Weather Reports


time (UTC)temp
F
wind
direction
speed
knots
gust
knots
rain 1hr
in
rain 24hr
in
rain mn
in
humidity
%
barometer
mb
20260510230019 64 359 0.0 4.3 0.00 0.00 0.00 27 1019.5
20260510224516 65 335 0.0 3.5 0.00 0.00 0.00 26 1019.6
20260510223015 65 202 0.0 7.0 0.00 0.00 0.00 26 1019.6
20260510221515 64 180 0.9 7.8 0.00 0.00 0.00 26 1019.4
20260510220015 65 346 0.9 5.2 0.00 0.00 0.00 25 1019.3
20260510214514 65 358 2.6 6.1 0.00 0.00 0.00 26 1019.2
20260510213013 64 355 3.5 8.7 0.00 0.00 0.00 26 1019.1
20260510211512 66 356 0.9 7.0 0.00 0.00 0.00 29 1019.0
20260510210014 63 337 1.7 7.0 0.00 0.00 0.00 27 1019.0
20260510204510 63 241 2.6 7.0 0.00 0.00 0.00 27 1019.1
20260510203010 64 356 0.9 4.3 0.00 0.00 0.00 28 1019.2
20260510201508 64 25 0.0 5.2 0.00 0.00 0.00 29 1019.5
20260510200008 63 51 0.9 8.7 0.00 0.00 0.00 30 1019.6
20260510194507 65 330 0.9 5.2 0.00 0.00 0.00 29 1019.4
20260510193008 63 21 1.7 5.2 0.00 0.00 0.00 28 1019.4
20260510191506 62 285 0.9 8.7 0.00 0.00 0.00 30 1019.5
20260510190006 63 302 0.9 5.2 0.00 0.00 0.00 29 1019.5
20260510184508 63 257 1.7 6.1 0.00 0.00 0.00 29 1019.5
20260510183003 62 186 1.7 7.0 0.00 0.00 0.00 29 1019.5
20260510181501 62 217 1.7 6.1 0.00 0.00 0.00 31 1019.6
20260510180117 62 35 0.9 7.0 0.00 0.00 0.00 33 1019.4
20260510174703 62 330 2.6 7.0 0.00 0.00 0.00 28 1019.5
20260510173057 62 350 1.7 7.8 0.00 0.00 0.00 32 1019.9
20260510171603 62 343 2.6 8.7 0.00 0.00 0.00 31 1019.8
20260510170122 62 33 0.9 5.2 0.00 0.00 0.00 31 1019.8
20260510164605 62 307 1.7 6.1 0.00 0.00 0.00 31 1019.9
20260510163052 61 330 1.7 7.0 0.00 0.00 0.00 33 1019.7
20260510161548 60 316 0.9 7.0 0.00 0.00 0.00 36 1019.4
20260510160045 59 274 0.9 5.2 0.00 0.00 0.00 37 1019.3
20260510154546 59 216 0.9 6.1 0.00 0.00 0.00 35 1019.2
20260510153051 59 101 0.0 3.5 0.00 0.00 0.00 37 1019.3
20260510151541 58 141 1.7 5.2 0.00 0.00 0.00 36 1019.3
20260510150039 58 139 0.9 2.6 0.00 0.00 0.00 38 1019.2
20260510144537 57 348 0.0 0.9 0.00 0.00 0.00 39 1019.2
20260510143037 55 130 0.0 2.6 0.00 0.00 0.00 41 1019.3
20260510141533 54 18 0.9 2.6 0.00 0.00 0.00 41 1019.2
20260510140027 54 75 0.0 2.6 0.00 0.00 0.00 40 1019.1
20260510134525 53 80 0.9 3.5 0.00 0.00 0.00 40 1018.9
20260510133021 52 89 0.0 2.6 0.00 0.00 0.00 42 1018.7
20260510131516 51 108 0.0 2.6 0.00 0.00 0.00 48 1018.5
20260510130033 50 50 0.0 3.5 0.00 0.00 0.00 55 1018.5
20260510124509 48 92 0.0 2.6 0.00 0.00 0.00 60 1018.4
20260510123007 47 79 0.0 0.9 0.00 0.00 0.00 64 1018.1
20260510121603 45 4 0.0 0.9 0.00 0.00 0.00 68 1017.9
20260510120008 44 347 0.0 1.7 0.00 0.00 0.00 72 1017.6
20260510114609 41 44 0.0 0.9 0.00 0.00 0.00 79 1017.5
20260510113059 39 356 0.0 0.9 0.00 0.00 0.00 85 1017.3
20260510111558 37 342 0.0 0.0 0.00 0.00 0.00 87 1017.1
20260510110059 37 340 0.0 0.0 0.00 0.00 0.00 86 1017.0
20260510104557 37 337 0.0 0.0 0.00 0.00 0.00 85 1016.7
20260510103050 38 335 0.0 0.0 0.00 0.00 0.00 83 1016.5
20260510101547 39 335 0.0 0.0 0.00 0.00 0.00 82 1016.4
20260510100045 39 330 0.0 0.0 0.00 0.00 0.00 81 1016.1
20260510094542 40 332 0.0 0.0 0.00 0.00 0.00 80 1016.0
20260510093042 40 18 0.0 0.9 0.00 0.00 0.00 80 1015.7
20260510091538 41 18 0.0 0.0 0.00 0.00 0.00 75 1015.8
20260510090034 42 18 0.0 0.0 0.00 0.00 0.00 72 1015.9
20260510084535 44 17 0.0 0.0 0.00 0.00 0.00 67 1015.7
20260510083028 45 19 0.0 1.7 0.00 0.00 0.00 64 1015.5
20260510081525 46 359 0.0 1.7 0.00 0.00 0.00 63 1015.2
20260510080023 46 1 0.9 3.5 0.00 0.00 0.00 61 1015.0
20260510074521 47 8 0.0 4.3 0.00 0.00 0.00 60 1014.7
20260510073019 48 360 1.7 7.0 0.00 0.00 0.00 59 1014.6
20260510071519 48 345 1.7 4.3 0.00 0.00 0.00 62 1014.3
20260510070016 48 360 0.9 5.2 0.00 0.00 0.00 67 1014.1
20260510064525 47 3 0.9 4.3 0.00 0.00 0.00 71 1013.7
20260510063008 43 358 0.0 1.7 0.00 0.00 0.00 83 1013.5
20260510061509 43 105 0.0 0.0 0.00 0.00 0.00 82 1013.2
20260510060059 44 106 0.0 0.0 0.00 0.00 0.00 80 1013.1
20260510054558 44 79 0.0 0.0 0.00 0.00 0.00 80 1013.0
20260510053054 45 78 0.0 0.0 0.00 0.00 0.00 77 1012.8
20260510051555 45 77 0.0 0.0 0.00 0.00 0.00 76 1012.6
20260510050050 46 79 0.0 0.0 0.00 0.00 0.00 74 1012.4
20260510044545 47 79 0.0 0.0 0.00 0.00 0.00 71 1012.1
20260510043042 48 79 0.0 0.0 0.00 0.00 0.00 68 1011.8
20260510041537 49 80 0.0 0.0 0.00 0.00 0.00 65 1011.4
20260510040037 49 81 0.0 0.0 0.00 0.00 0.00 63 1011.2
20260510034533 50 79 0.0 0.9 0.00 0.00 0.00 60 1011.1
20260510033036 51 74 0.0 0.0 0.00 0.00 0.00 59 1011.0
20260510031531 53 72 0.0 1.7 0.00 0.00 0.00 57 1010.9
20260510030028 53 35 0.0 0.9 0.00 0.00 0.00 57 1010.7
20260510024527 54 354 0.0 0.0 0.00 0.00 0.00 55 1010.4
20260510023024 55 354 0.0 0.0 0.00 0.00 0.00 53 1010.1
20260510021525 57 36 0.0 4.3 0.00 0.00 0.00 49 1009.6
20260510020017 59 11 0.0 2.6 0.00 0.00 0.00 46 1009.2
20260510014514 62 19 1.7 5.2 0.00 0.00 0.00 40 1008.7
20260510013011 63 322 0.9 5.2 0.00 0.00 0.00 37 1008.3
20260510011509 64 8 0.0 3.5 0.00 0.00 0.00 37 1007.9
20260510010006 65 331 0.9 7.0 0.00 0.00 0.00 37 1007.5
20260510004503 66 326 1.7 7.8 0.00 0.00 0.00 37 1007.2
20260510003107 67 335 0.9 7.0 0.00 0.00 0.00 37 1006.9
20260510001602 67 302 0.0 5.2 0.00 0.00 0.00 36 1006.6
20260510000057 68 188 0.9 3.5 0.00 0.00 0.00 34 1006.2
20260509234611 69 319 0.9 7.0 0.00 0.00 0.00 34 1006.1
20260509233054 71 255 1.7 4.3 0.00 0.00 0.00 34 1005.9
20260509231601 72 259 0.9 5.2 0.00 0.00 0.00 32 1005.7